Total_Precipitation_Accumulation
0.01 0.03 0.14 0.31 0.62 1.04 1.05 0.56 0.38 0.25 0.26 0.38 0.38 0.28 0.28 0.36 0.44 0.68 0.31 0.24 0.12 0.04 0.03 0.05 0.08 0.06 0.07 0.09 0.10 0.11 0.10 0.10 0.09 0.07 0.06 0.06 0.05 0.05 0.05 0.05 0.06 0.07 0.09 0.09 0.09 0.08 0.06 0.06 0.07
0.01 0.05 0.18 0.41 0.83 1.39 0.93 0.41 0.28 0.23 0.32 0.40 0.32 0.25 0.28 0.26 0.24 0.17 0.15 0.27 0.11 0.04 0.02 0.02 0.06 0.07 0.06 0.08 0.09 0.11 0.11 0.12 0.12 0.09 0.08 0.07 0.07 0.07 0.08 0.07 0.07 0.08 0.09 0.09 0.08 0.07 0.05 0.05 0.06
0.02 0.06 0.22 0.39 0.69 0.97 0.48 0.21 0.18 0.21 0.36 0.39 0.31 0.27 0.30 0.33 0.29 0.21 0.13 0.15 0.11 0.05 0.03 0.04 0.05 0.06 0.06 0.07 0.09 0.10 0.11 0.12 0.13 0.11 0.08 0.08 0.09 0.10 0.11 0.10 0.08 0.08 0.08 0.08 0.08 0.07 0.07 0.06 0.07
0.02 0.10 0.22 0.34 0.50 0.50 0.26 0.16 0.15 0.21 0.34 0.31 0.27 0.36 0.39 0.44 0.27 0.20 0.16 0.12 0.10 0.07 0.05 0.05 0.06 0.06 0.06 0.07 0.08 0.10 0.12 0.13 0.13 0.11 0.10 0.10 0.11 0.11 0.11 0.10 0.09 0.08 0.08 0.09 0.08 0.07 0.08 0.08 0.09
0.03 0.14 0.27 0.35 0.36 0.27 0.20 0.16 0.17 0.18 0.20 0.28 0.33 0.50 0.49 0.45 0.29 0.34 0.32 0.19 0.09 0.09 0.10 0.10 0.10 0.08 0.09 0.08 0.09 0.10 0.11 0.12 0.12 0.11 0.12 0.12 0.12 0.11 0.11 0.11 0.10 0.09 0.08 0.09 0.11 0.10 0.08 0.09 0.10
0.03 0.10 0.19 0.19 0.14 0.13 0.18 0.16 0.15 0.16 0.21 0.32 0.42 0.44 0.50 0.44 0.39 0.55 0.47 0.30 0.18 0.14 0.17 0.18 0.17 0.15 0.13 0.11 0.11 0.12 0.13 0.14 0.14 0.14 0.14 0.13 0.13 0.14 0.13 0.13 0.12 0.12 0.12 0.11 0.12 0.13 0.11 0.11 0.11
0.02 0.04 0.07 0.06 0.06 0.11 0.12 0.12 0.13 0.15 0.28 0.38 0.45 0.54 0.67 0.71 0.57 0.54 0.53 0.51 0.33 0.34 0.45 0.37 0.24 0.20 0.21 0.19 0.18 0.17 0.17 0.19 0.18 0.18 0.17 0.16 0.16 0.16 0.17 0.18 0.18 0.18 0.19 0.19 0.16 0.13 0.15 0.15 0.14
0.01 0.02 0.02 0.02 0.02 0.05 0.05 0.08 0.11 0.16 0.25 0.40 0.51 0.65 0.90 0.87 0.72 0.65 0.68 0.78 0.54 0.46 0.52 0.49 0.33 0.28 0.22 0.19 0.20 0.22 0.22 0.23 0.22 0.21 0.20 0.19 0.18 0.20 0.23 0.25 0.30 0.31 0.34 0.36 0.31 0.23 0.22 0.24 0.24
0.00 0.01 0.01 0.01 0.01 0.01 0.02 0.04 0.08 0.15 0.23 0.31 0.52 0.72 0.74 0.68 0.85 0.84 0.90 1.12 1.06 0.83 0.73 0.64 0.40 0.32 0.30 0.26 0.23 0.29 0.29 0.29 0.28 0.31 0.28 0.30 0.36 0.47 0.61 0.56 0.65 0.60 0.62 0.62 0.60 0.53 0.51 0.52 0.42
0.00 0.01 0.01 0.00 0.00 0.01 0.01 0.03 0.09 0.24 0.39 0.60 0.86 0.87 0.70 0.68 1.00 1.17 1.29 1.48 1.45 1.25 1.09 0.85 0.59 0.48 0.46 0.38 0.39 0.43 0.44 0.54 0.54 0.68 0.71 0.81 0.98 0.97 0.80 0.94 1.15 1.20 1.19 1.12 1.09 1.18 1.07 0.90 0.74
0.00 0.00 0.00 0.00 0.00 0.00 0.01 0.02 0.06 0.18 0.58 1.01 1.25 1.24 1.07 0.93 1.19 1.55 1.82 2.03 1.76 1.42 1.24 1.07 0.86 0.69 0.58 0.60 0.62 0.69 0.81 1.07 0.95 0.91 1.02 1.30 1.23 1.03 0.94 1.07 1.35 1.62 1.63 1.53 1.67 1.79 1.42 1.47 1.54
0.00 0.00 0.00 0.00 0.00 0.00 0.01 0.03 0.12 0.21 0.59 0.83 1.04 1.19 1.25 1.26 1.33 1.55 1.84 2.01 2.12 1.97 1.70 1.41 1.27 1.07 1.03 0.98 0.92 0.87 0.93 1.04 1.03 1.15 1.08 1.39 1.47 1.36 1.30 1.41 1.52 1.72 1.93 2.22 2.19 2.31 2.18 2.10 1.94
0.00 0.00 0.00 0.00 0.00 0.01 0.01 0.06 0.15 0.27 0.52 0.55 0.65 0.83 1.12 1.35 1.65 1.90 2.04 2.28 2.35 2.40 2.18 1.97 1.77 1.67 1.62 1.47 1.32 1.12 1.17 1.15 1.17 1.36 1.37 1.50 1.74 1.80 1.86 1.82 1.74 1.66 2.02 2.42 2.57 2.34 2.58 2.61 2.24
0.00 0.00 0.00 0.00 0.01 0.02 0.03 0.08 0.18 0.32 0.46 0.53 0.59 0.79 1.07 1.39 1.65 2.04 2.31 2.59 2.52 2.57 2.64 2.70 2.53 2.40 2.28 2.12 1.97 1.76 1.61 1.67 1.64 1.69 1.83 1.98 2.13 2.28 2.33 2.18 2.05 1.85 1.90 2.17 2.37 2.38 2.59 2.47 2.35
0.00 0.01 0.04 0.04 0.03 0.04 0.10 0.19 0.35 0.48 0.53 0.69 0.79 1.02 1.17 1.48 1.80 1.91 2.04 2.27 2.54 2.75 3.13 3.35 3.35 3.26 3.11 2.94 2.69 2.35 2.16 2.21 2.37 2.43 2.48 2.44 2.50 2.72 2.61 2.35 2.05 1.95 2.00 2.09 2.08 2.11 2.21 2.07 2.00
0.01 0.03 0.10 0.11 0.07 0.08 0.14 0.39 0.53 0.57 0.69 0.87 0.92 1.16 1.43 1.48 1.75 1.89 1.94 2.12 2.64 3.05 3.54 3.79 3.92 4.08 3.95 3.78 3.44 2.94 2.66 2.61 2.65 2.72 2.72 2.66 2.67 2.58 2.51 2.20 1.86 1.91 1.99 1.98 1.95 1.84 1.91 1.89 1.94
0.02 0.06 0.12 0.19 0.11 0.12 0.19 0.48 0.60 0.62 0.82 0.95 1.12 1.14 1.30 1.48 1.81 2.08 2.22 2.33 2.70 3.25 3.89 4.31 4.75 4.96 4.83 4.37 3.73 3.24 3.13 3.02 2.89 2.88 2.75 2.63 2.44 2.30 2.39 2.10 1.91 1.88 1.83 1.72 1.63 1.82 1.96 1.90 1.91
0.03 0.05 0.12 0.22 0.15 0.14 0.25 0.47 0.67 0.76 0.91 1.07 1.11 1.09 1.21 1.44 1.62 1.90 2.17 2.55 2.84 3.29 3.94 4.57 5.13 5.27 4.94 4.24 3.68 3.49 3.30 3.00 2.74 2.46 2.27 2.07 2.01 1.91 1.98 1.78 1.68 1.76 1.76 1.62 1.66 1.81 1.88 1.67 1.73
0.03 0.05 0.13 0.21 0.14 0.16 0.29 0.45 0.67 0.83 0.97 1.02 1.19 1.15 1.24 1.42 1.59 1.94 2.27 2.71 3.08 3.48 4.08 4.62 5.03 4.94 4.64 4.18 3.69 3.31 2.82 2.50 2.21 1.90 1.67 1.51 1.42 1.40 1.57 1.40 1.48 1.54 1.49 1.40 1.38 1.45 1.48 1.30 1.53
0.05 0.08 0.17 0.20 0.13 0.14 0.30 0.50 0.76 0.84 0.82 0.83 1.03 1.12 1.12 1.21 1.43 1.74 2.21 2.61 2.96 3.36 3.76 4.06 3.98 3.55 3.30 3.12 2.84 2.47 2.32 2.17 2.07 1.96 1.73 1.40 1.33 1.27 1.19 1.21 1.18 1.24 1.28 1.17 1.12 1.23 1.22 1.04 1.29
0.06 0.08 0.14 0.19 0.21 0.22 0.33 0.65 0.87 0.89 0.80 0.73 0.74 0.82 0.88 0.98 1.18 1.47 1.98 2.28 2.44 2.73 2.94 2.94 2.69 2.28 2.15 2.12 1.93 1.95 2.07 2.08 2.02 1.98 1.84 1.59 1.45 1.38 1.30 1.20 1.09 1.06 1.05 1.06 1.03 1.10 1.11 0.99 1.02
0.09 0.06 0.07 0.09 0.19 0.41 0.46 0.82 1.05 1.09 1.04 0.85 0.72 0.78 0.79 0.80 0.85 1.15 1.48 1.63 1.80 1.88 1.91 1.90 1.81 1.67 1.58 1.58 1.52 1.42 1.51 1.69 1.81 1.93 1.94 1.92 1.78 1.57 1.40 1.25 1.06 0.91 0.87 0.93 0.82 0.89 1.01 1.03 0.92
0.06 0.05 0.06 0.09 0.15 0.29 0.41 0.64 1.01 1.20 1.35 0.95 0.70 0.68 0.62 0.66 0.78 0.94 1.00 1.02 1.14 1.19 1.26 1.26 1.34 1.39 1.38 1.41 1.54 1.43 1.23 1.17 1.10 1.14 1.26 1.36 1.43 1.35 1.14 1.03 0.94 0.84 0.77 0.75 0.78 0.89 0.96 0.98 0.91
0.06 0.10 0.15 0.24 0.37 0.60 0.57 0.60 0.90 1.01 1.06 0.74 0.59 0.64 0.53 0.49 0.57 0.66 0.70 0.73 0.79 0.84 0.91 1.05 1.17 1.32 1.31 1.30 1.32 1.34 1.25 1.17 1.07 0.99 0.98 0.93 0.96 0.95 0.87 0.80 0.79 0.76 0.74 0.74 0.73 0.78 0.86 0.94 0.99
0.08 0.15 0.47 0.81 1.13 1.15 0.65 0.64 0.80 0.70 0.66 0.69 0.58 0.53 0.49 0.40 0.40 0.37 0.39 0.43 0.47 0.48 0.55 0.76 0.90 1.03 1.03 1.02 1.04 1.05 1.16 1.14 1.04 0.90 0.80 0.72 0.66 0.66 0.69 0.70 0.73 0.71 0.75 0.79 0.85 0.85 0.84 0.92 1.03
0.08 0.12 0.33 0.56 0.73 0.83 0.67 0.95 0.94 0.64 0.57 0.49 0.38 0.32 0.35 0.26 0.22 0.19 0.19 0.21 0.27 0.32 0.35 0.44 0.64 0.76 0.85 0.84 0.88 0.99 1.18 1.20 1.07 1.05 0.88 0.77 0.68 0.65 0.66 0.72 0.78 0.75 0.73 0.73 0.83 0.86 0.92 0.99 1.03
0.09 0.08 0.12 0.18 0.30 0.54 0.77 0.93 0.80 0.56 0.52 0.41 0.27 0.19 0.18 0.15 0.12 0.11 0.12 0.13 0.16 0.20 0.25 0.28 0.41 0.57 0.70 0.75 0.80 0.80 0.82 0.86 0.86 0.85 0.80 0.73 0.76 0.68 0.73 0.79 0.86 0.85 0.84 0.85 0.89 0.88 0.97 1.15 1.22
0.10 0.09 0.10 0.14 0.26 0.41 0.65 0.94 0.92 0.72 0.58 0.45 0.31 0.18 0.12 0.11 0.09 0.09 0.08 0.09 0.10 0.14 0.23 0.32 0.36 0.47 0.72 0.85 0.83 0.70 0.61 0.56 0.65 0.69 0.72 0.75 0.76 0.73 0.75 0.79 0.81 0.85 0.85 0.86 0.90 0.94 1.03 1.20 1.27
0.14 0.11 0.10 0.13 0.15 0.26 0.53 0.70 0.55 0.49 0.40 0.32 0.26 0.17 0.13 0.10 0.07 0.05 0.04 0.05 0.08 0.12 0.21 0.38 0.47 0.58 0.78 0.97 1.00 0.88 0.71 0.65 0.64 0.62 0.58 0.63 0.70 0.75 0.78 0.73 0.66 0.62 0.66 0.79 0.93 0.97 1.05 1.14 1.19
0.14 0.13 0.14 0.19 0.17 0.18 0.29 0.44 0.29 0.27 0.28 0.19 0.13 0.11 0.08 0.06 0.05 0.03 0.02 0.03 0.06 0.09 0.20 0.50 0.76 1.06 1.18 1.32 1.43 1.26 0.90 0.73 0.64 0.54 0.49 0.55 0.65 0.71 0.75 0.70 0.63 0.59 0.65 0.79 0.93 1.06 1.26 1.39 1.35